Flag for U.S.A. Weather past 2 weeks in Frankfort, Kentucky, U.S.A.

Now
56 °F

Sunny.


Feels Like: 52 °F
Forecast: 40 / 58 °F
Wind: 15 mph from Southwest

Location: Capital City Airport

Current Time: Mar 29, 2015 at 8:27:38 PM

Latest Report: Mar 29, 2015 at 7:53 PM


Visibility: 10 mi

Pressure: 29.99 "Hg

Humidity: 21%

Dew point: 16 °F

Location of FrankfortLocation

Historic Weather in Frankfort — Graph

°F

Frankfort temperature yesterday

Maximum temperature yesterday: 40 °F (at 3:53 PM)
Minimum temperature yesterday: 21 °F (at 6:53 AM)
Average temperature yesterday: 30 °F

Past Weeks' High & Low Weather Summary

 TemperatureHumidityPressure
High74 °F (Mar 16, 2:53 PM)97% (Mar 20, 6:53 AM)30.37 "Hg (Mar 20, 6:53 AM)
Low20 °F (Mar 29, 5:53 AM)14% (Mar 29, 3:53 PM)29.78 "Hg (Mar 26, 4:53 AM)
Average46 °F59%30.11 "Hg
* Reported Mar 14 6:53 PM — Mar 29 6:53 PM, Frankfort, Weather by CustomWeather, © 2015

Note: Actual official high and low records may vary slightly from our data, if they occured in-between our weather recording intervals... More about our weather records

Advertising

Frankfort weather history for previous 24 hours

 ConditionsComfort  
Time TempWeatherWind HumidityBarometerVisibility
6:53 PM
Sun, Mar 29
56 °FSunny.15 mph19%29.97 "Hg10 mi
5:53 PM55 °FPassing clouds.16 mph18%30.02 "Hg10 mi
4:53 PM56 °FSunny.15 mph16%30.05 "Hg10 mi
3:53 PM56 °FSunny.14 mph14%30.12 "Hg10 mi
2:53 PM52 °FSunny.14 mph17%30.18 "Hg10 mi
1:53 PM50 °FSunny.12 mph22%30.24 "Hg10 mi
12:53 PM46 °FSunny.7 mph29%30.30 "Hg10 mi
11:53 AM43 °FSunny.12 mph31%30.31 "Hg10 mi
10:53 AM38 °FSunny.14 mph41%30.34 "Hg10 mi
9:53 AM33 °FSunny.9 mph52%30.37 "Hg10 mi
8:53 AM27 °FSunny.9 mph63%30.37 "Hg10 mi
7:53 AM22 °FClear.3 mph72%30.37 "Hg10 mi
6:53 AM22 °FClear.No wind72%30.35 "Hg10 mi
5:53 AM20 °FClear.3 mph78%30.36 "Hg10 mi
4:53 AM22 °FClear.No wind75%30.36 "Hg10 mi
3:53 AM21 °FClear.No wind81%30.36 "Hg10 mi
2:53 AM22 °FClear.No wind75%30.37 "Hg10 mi
1:53 AM22 °FClear.No wind75%30.37 "Hg10 mi
12:53 AM24 °FClear.No wind71%30.37 "Hg10 mi
11:53 PM
Sat, Mar 28
24 °FClear.No wind71%30.34 "Hg10 mi
10:53 PM26 °FClear.No wind69%30.35 "Hg10 mi
9:53 PM30 °FClear.3 mph54%30.34 "Hg10 mi
8:53 PM31 °FSunny.No wind49%30.31 "Hg10 mi
Weather by CustomWeather, © 2015

See weather overviewHow to use our weather pages